Home   Weather   Wake Island   Past weeks

Flag for US Minor Outlying Islands Past Weather in Wake Island, US Minor Outlying Islands — Yesterday and Last 2 Weeks

Now
82 °F

Partly sunny.


Feels Like: 88 °F
Forecast: 78 / 82 °F
Wind: 18 mph from Northeast

Location: Wake Island Airfld

Current Time: Apr 27, 2017 at 11:36:14 am

Latest Report: Apr 27, 2017 at 9:58 am


Visibility: N/A

Pressure: 30.06 "Hg

Humidity: 75%

Dew Point: 74 °F

Location of Wake IslandLocation

Past Weather in Wake Island — Graph

°F

Wake Island Temperature Yesterday

Maximum temperature yesterday: 86 °F (at 12:58 pm)
Minimum temperature yesterday: 78 °F (at 5:58 am)
Average temperature yesterday: 81 °F

High & Low Weather Summary for the Past Weeks

 TemperatureHumidityPressure
High87 °F (Apr 15, 12:58 pm)89% (Apr 14, 1:33 am)30.06 "Hg (Apr 14, 1:33 am)
Low75 °F (Apr 16, 4:07 am)57% (Apr 26, 12:58 pm)29.90 "Hg (Apr 12, 4:58 pm)
Average81 °F76%29.98 "Hg
* Reported Apr 12 9:58 am — Apr 27 9:58 am, Wake Island, Weather by CustomWeather, © 2017

Note: Actual official high and low records may vary slightly from our data, if they occured in-between our weather recording intervals... More about our weather records

Advertising

Wake Island Weather History for the Previous 24 Hours

Scroll right to see more
 ConditionsComfort  
Time TempWeatherWind HumidityBarometerVisibility
9:58 am
Thu, Apr 27
82 °FPartly sunny.18 mph75%30.06 "HgN/A
8:58 am82 °FPartly sunny.20 mph74%30.05 "HgN/A
7:58 am80 °FPassing clouds.21 mph82%30.02 "HgN/A
6:58 am78 °FPassing clouds.17 mph84%30.01 "HgN/A
5:58 am79 °FPassing clouds.17 mph83%29.99 "HgN/A
4:58 am78 °FPassing clouds.15 mph85%29.98 "HgN/A
3:58 am79 °FPassing clouds.18 mph81%29.97 "HgN/A
2:58 am79 °FPassing clouds.16 mph78%29.98 "HgN/A
1:58 am79 °FPassing clouds.16 mph79%29.99 "HgN/A
1:03 am79 °FPassing clouds.17 mph79%29.99 "HgN/A
11:58 pm
Wed, Apr 26
80 °FPassing clouds.20 mph79%30.02 "HgN/A
11:08 pm81 °FPartly cloudy.22 mph79%30.00 "HgN/A
10:58 pm80 °FPassing clouds.16 mph80%30.03 "HgN/A
9:58 pm80 °FClear.20 mph80%30.02 "HgN/A
8:58 pm80 °FClear.16 mph78%30.01 "HgN/A
7:58 pm80 °FPassing clouds.18 mph79%29.98 "HgN/A
6:58 pm81 °FPassing clouds.21 mph76%29.97 "HgN/A
5:58 pm82 °FScattered clouds.17 mph73%29.95 "HgN/A
4:58 pm85 °FScattered clouds.16 mph61%29.93 "HgN/A
3:58 pm85 °FScattered clouds.18 mph62%29.96 "HgN/A
3:23 pm86 °FBroken clouds.15 mph62%29.93 "HgN/A
2:58 pm86 °FScattered clouds.17 mph62%29.96 "HgN/A
1:58 pm86 °FScattered clouds.16 mph62%29.98 "HgN/A
12:58 pm86 °FScattered clouds.15 mph57%30.00 "HgN/A
11:58 am85 °FSunny.15 mph58%30.01 "HgN/A
Weather by CustomWeather, © 2017

See weather overviewHow to use our weather pages